User: anonymous   Login
Location: ??
(35.5052°N, 139.7262°E)
Time: 18:42:20
(UTC+00:00)
Language:

FENGYUN 1C DEB - Orbit

View from above orbital plane
View from above orbital plane
View from above satellite
View from above satellite

Ground track
Ground track

The orbit data is extracted from the following two-line orbital elements,

1 47032U 99025FBJ 21355.37751451  .00001633  00000-0  70870-3 0  9998
2 47032  98.8501  47.8828 0033713 118.5620 301.3399 14.25295214488403
Epoch (UTC): 21 December 2021 09:03:37
Eccentricity: 0.0033713
inclination: 98.8501°
perigee height: 783 km
apogee height: 832 km
right ascension of ascending node: 47.8828°
argument of perigee: 118.5620°
revolutions per day: 14.25295214
mean anomaly at epoch: 301.3399°
orbit number at epoch: 48840

The dashed part of the orbit path shows where the satellite is in the earth's shadow,  

DLR